Regional Weather Roundup
Issued by NWS

Home | Current Version | Previous Version | Text Only | Print | Product List | Glossary Off
Versions: 1 2 3 4 5 6 7 8 9 10 11 12 13 14 15 16 17 18 19 20 21 22 23 24 25 26 27 28 29 30 31 32 33 34 35 36 37 38 39 40 41 42 43 44 45 46 47 48 49 50

118
ASUS43 KMPX 210801
RWRMN
WEATHER ROUNDUP FOR MINNESOTA
NATIONAL WEATHER SERVICE TWIN CITIES/CHANHASSEN MN
300 AM CDT SAT APR 21 2018


NOTE: "FAIR" INDICATES FEW OR NO CLOUDS BELOW 12,000 FEET WITH NO
SIGNIFICANT WEATHER AND/OR OBSTRUCTIONS TO VISIBILITY. N/A MEANS
CURRENT SKY AND/OR WEATHER CONDITIONS ARE NOT AVAILABLE.

MNZ060>063-068>070-210900-
   Twin Cities Metro

CITY           SKY/WX    TMP DP  RH WIND       PRES   REMARKS
TWIN CITIES    MOCLDY    37  28  70 CALM      30.41S
ST PAUL        FAIR      35  29  78 CALM      30.42S
CRYSTAL        FAIR      32  25  75 CALM      30.40S
BLAINE         FAIR      34  27  75 CALM      30.40F
LAKEVILLE      FAIR      30  28  93 CALM      30.41S
EDEN PRAIRIE   FAIR      34  26  72 CALM      30.40S
SOUTH ST PAUL  FAIR      34  26  71 CALM      30.41S
LAKE ELMO      FAIR      32  28  86 CALM      30.41F
$$
MNZ001>005-007-008-013>017-022>024-027-028-210900-
   Northwest Minnesota

CITY           SKY/WX    TMP DP  RH WIND       PRES   REMARKS
BEMIDJI        FAIR      30  22  70 CALM      30.37S
HALLOCK        FAIR      36  32  87 S9        30.33S
ROSEAU         FAIR      36  30  80 S6        30.35S
WARROAD        FAIR      34  28  80 CALM      30.35F
THIEF RVR FALL FAIR      36  33  89 S5        30.37R
CROOKSTON      FAIR      37  34  87 S9        30.37S
FOSSTON        FAIR      34  28  80 S5        30.37S WCI  30
DETROIT LAKES  FAIR      34  32  93 CALM      30.38S
MOORHEAD       FAIR      36  30  80 S8        30.37F
PARK RAPIDS    FAIR      32  24  72 CALM      30.37R
MAHNOMEN       FAIR      34  31  91 S6        30.36S WCI  29
$$
MNZ006-009>011-018-025>026-210900-
   North Central Minnesota

CITY           SKY/WX    TMP DP  RH WIND       PRES   REMARKS
BAUDETTE       FAIR      31  27  85 CALM      30.35F
FLAG ISLAND    FAIR      36  28  75 SE3       30.34F
INTL FALLS     FAIR      28  23  81 CALM      30.35S
WASKISH        FAIR      28  25  86 CALM      30.37S
BIG FORK       FAIR      28  21  74 CALM      30.37S
LONGVILLE      FAIR      27  21  80 CALM      30.38S
GRAND RAPIDS   FAIR      29  22  75 S3        30.40S
CRANE LAKE     FAIR      23  21  93 CALM      30.38S
ORR            FAIR      36  18  48 CALM      30.35S
COOK           FAIR      36  21  55 CALM      30.37S
WALKER         FAIR      32  20  62 CALM      30.37S
$$
MNZ012-019>021-037-210900-
   Northeast Minnesota

CITY           SKY/WX    TMP DP  RH WIND       PRES   REMARKS
DULUTH         FAIR      37  19  48 NW3       30.38S
ELY            FAIR      27  21  80 CALM      30.37S
HIBBING        FAIR      25  19  78 CALM      30.37F
EVELETH        FAIR      28  22  78 CALM      30.39S
DULUTH HARBOR  FAIR      37  23  56 S6        30.41S
TWO HARBORS    FAIR      43  25  49 W6        30.36F
SILVER BAY     FAIR      43  19  39 CALM      30.36S
GRAND MARAIS     N/A     30  23  75 CALM      30.38F
G MARAIS ARPRT FAIR      28  18  64 CALM      30.37S
$$
MNZ029>031-032-039>041-046>048-054>057-064-210900-
   West Central Minnesota

CITY           SKY/WX    TMP DP  RH WIND       PRES   REMARKS
FERGUS FALLS   FAIR      36  28  75 SE6       30.37S
WHEATON        CLOUDY    34  30  86 SE5       30.39F WCI  30
MORRIS         CLOUDY    34  30  86 SE6       30.37S WCI  29
ALEXANDRIA     FAIR      37  31  78 S3        30.38S
ELBOW LAKE     FAIR      33  30  90 E6        30.39R WCI  27
WADENA         FAIR      30  28  93 CALM      30.37F
GLENWOOD       FAIR      34  32  93 SE3       30.38S
APPLETON       CLOUDY    34  30  86 E3        30.39S
BENSON         CLOUDY    32  30  93 CALM      30.40F
ORTONVILLE     CLOUDY    34  30  86 SE3       30.38S
MADISON        CLOUDY    36  34  93 CALM      30.38S
WILLMAR        FAIR      34  30  86 CALM      30.41S
$$
MNZ033>034-036-042>043-049>051-058-059-210900-
   Central Minnesota

CITY           SKY/WX    TMP DP  RH WIND       PRES   REMARKS
ST CLOUD       FAIR      30  27  88 CALM      30.39F
SAUK CENTRE    FAIR      32  30  92 CALM      30.38F
PAYNESVILLE    FAIR      31  30  97 CALM      30.39S
AITKIN         FAIR      25  21  86 CALM      30.38S
PINE RIVER     FAIR      27  21  80 CALM      30.41S
BRAINERD       FAIR      29  24  82 CALM      30.39S
STAPLES        FAIR      28  27  93 CALM      30.39R
LONG PRAIRIE   FAIR      32  30  93 CALM      30.39S
LITTLE FALLS   FAIR      32  23  69 CALM      30.40S
LITCHFIELD     FAIR      34  30  86 CALM      30.40S
BUFFALO        FAIR      32  28  86 CALM      30.41S
MAPLE LAKE     FAIR      30  29  95 CALM      30.41S
HUTCHINSON     FAIR      33  31  92 CALM      30.41R
$$
MNZ037-044-045-052-053-210900-
   East Central Minnesota

CITY           SKY/WX    TMP DP  RH WIND       PRES   REMARKS
PRINCETON      FAIR      30  25  80 CALM      30.40S
MORA           FAIR      28  23  80 CALM      30.42S
CAMBRIDGE      FAIR      32  21  64 CALM      30.41S
RUSH CITY      FAIR      32  24  74 CALM      30.41S
MOOSE LAKE     FAIR      28  21  74 CALM      30.38S
HINCKLEY       FAIR      30  27  86 CALM      30.40F
CLOQUET        FAIR      28  19  69 W5        30.39S WCI  23
MCGREGOR       FAIR      30  23  74 CALM      30.39S
$$
MNZ071>073-080-081-089-090-097-098-210900-
   Southwest Minnesota

CITY           SKY/WX    TMP DP  RH WIND       PRES   REMARKS
MONTEVIDEO     CLOUDY    34  30  86 CALM      30.39S
GRANITE FALLS  CLOUDY    37  32  82 SE3       30.41R
CANBY          CLOUDY    35  33  91 CALM      30.39S
MARSHALL       CLOUDY    35  31  85 S3        30.39S
REDWOOD FALLS  CLOUDY    34  29  82 S5        30.39S WCI  30
OLIVIA         CLOUDY    36  32  87 CALM      30.39R
PIPESTONE      DRIZZLE  N/A N/A N/A SE8       30.37R
WINDOM         CLOUDY    37  19  48 CALM      30.39R
WORTHINGTON    MIX PCPN  36  29  75 S8        30.40R
JACKSON        CLOUDY    36  28  75 SE5       30.39S
TRACY          CLOUDY    39  30  70 S6        30.38R
SLAYTON        CLOUDY    34  31  89 CALM      30.38S
$$
MNZ065>067-074>077-082>085-091>093-210900-
   South Central Minnesota

CITY           SKY/WX    TMP DP  RH WIND       PRES   REMARKS
MANKATO        FAIR      35  29  78 E3        30.41S
NEW ULM        CLOUDY    36  27  69 CALM      30.40S
ST JAMES       CLOUDY    36  30  80 SE3       30.40S
FAIRMONT       CLOUDY    37  28  70 CALM      30.40S
GLENCOE        FAIR      34  31  88 CALM      30.39S
OWATONNA       FAIR      36  30  80 CALM      30.40S
WASECA         CLOUDY    36  32  87 E3        30.41S
ALBERT LEA     MOCLDY    36  27  69 CALM      30.40S
$$
MNZ078>079-086>088-094>096-210900-
   Southeast Minnesota

CITY           SKY/WX    TMP DP  RH WIND       PRES   REMARKS
ROCHESTER      FAIR      37  25  61 CALM      30.41R
RED WING       FAIR      30  25  80 CALM      30.41S
STANTON        FAIR      32  29  90 CALM      30.40R
DODGE CENTER   FAIR      34  28  80 CALM      30.40S
WINONA         FAIR      34  32  93 CALM      30.41S
AUSTIN         FAIR      36  27  69 E3        30.40S
PRESTON        FAIR      35  24  64 CALM      30.41R
$$
ABBREVIATIONS USED IN REMARKS
   TC - TEMPERATURES IN CELSIUS
  WCI - WIND CHILL INDEX
   HX - HEAT INDEX
  VSB - VISIBILITY
$$




USA.gov is the U.S. government's official web portal to all federal, state and local government web resources and services.